User: anonymous   Login
Location: Unspecified
(0.0000°N, 0.0000°E)
Time: 01:08:47
(UTC+01:00)
Language:

CZ-4B R/B - Orbit

View from above orbital plane
View from above orbital plane
View from above satellite
View from above satellite

Ground track
Ground track

The orbit data is extracted from the following two-line orbital elements,

1 33410U 08053C   16342.01621964  .00000245  00000-0  22685-4 0  9990
2 33410  97.7050 308.6892 0122235 115.3612 246.0327 14.98045148442010
Epoch (UTC): 07 December 2016 00:23:21
Eccentricity: 0.0122235
inclination: 97.7050°
perigee height: 488 km
apogee height: 658 km
right ascension of ascending node: 308.6892°
argument of perigee: 115.3612°
revolutions per day: 14.98045148
mean anomaly at epoch: 246.0327°
orbit number at epoch: 44201

The dashed part of the orbit path shows where the satellite is in the earth's shadow,  

DLR